STARLINK-33723, 63593

Orbit data source: Space-Track

STARLINK-33723, 63593 is a payload satellite owned by SpaceX/Seattle (US) in LEO that was launched on Mon, 14 Apr 2025 UTC via an FALCON 9 launch vehicle from the Air Force Eastern Test Range (AFETR). Payload-class satellites include a variety of spacecraft equipped with specific instruments for various scientific and technological missions. These include communications satellites like Starlink; space stations such as the ISS; scientific satellites like the Hubble; Earth observation satellites from companies like Planet Labs, Umbra, and HawkEye 360; GPS; miniature CubeSats for education and research; and military/defense satellites.

Loading next visibility...
Identifier
63593, 2025-076AA
Orbit
LEO
Country
Flag of USUS
Related business
Manufacturer
SpaceX/Seattle
Mission
Operational Commercial Communications
Bus & Motor
STARLINK V2MO, Unknown motor
Mass
575 kg wet, ~530 kg dry
Launch date (UTC)
2025-04-14 (1 year ago)
Launch vehicle
FALCON 9
Launch site
Air Force Eastern Test Range (AFETR)
Object type
Payload
Rocket body
Debris
Shape & HBR
Box + 2 Pan, 17.7 m
Radar Cross Section
36.964 m², Large (>1 m²)

Expand to show TLE details & history
Last TLE update: 17 hours ago

TLE from 17 hours ago
0 STARLINK-33723
1 63593U 25076AA  26120.15811567  .00029784  00000-0  10861-2 0  9999
2 63593  43.0025  30.8673 0001761 263.3612  96.7039 15.27621954 59704
Epoch: 2026-04-30T03:47Z
TLE epoch observation values (Epoch: 2026-04-30T03:47:41.193Z)
Latitude
-0.00005°
Longitude
115.83686°
Altitude
482.84 km
Speed
7.626 km/s
True Right ascension
02h 03m 28s
True Declination
0° 00' 00"
Sunlit
Object was in daylight at epoch
Visualization orbit readout
Latitude
Unknown
Longitude
Unknown
Altitude
Unknown
Speed
Unknown
Apparent Right ascension
Unknown
Apparent Declination
Unknown
Sunlit
N/A
Visualization observer readout
Local Sidereal Time
04:41:47
Azimuth
Unknown
Elevation
Unknown
Doppler factor
Unknown
Orbital elements
Apogee altitude
486.077 km
Perigee altitude
483.66 km
Semi-major axis
6,863.005 km
Eccentricity
0.00018
Inclination
43.0025°
RAAN
30.8673°
Arg. of periapsis
263.3612°
True anomaly
96.72394°
Mean anomaly
96.7039°
Eccentric anomaly
96.71392°
Mean motion
3.81744 °/min
Orbital period
94.3 mins
BSTAR
0.0010861
Loading maneuver chart data...
Computing Atmospheric mass density...
Loading historical data...
Loading historical data...
Loading historical data...
Loading historical data...
Loading historical data...
Loading historical data...
Loading historical data...

Documentation

Showing up to 5 results
|